#timestamp,LO_Frequency,Hit,StdDev 
1597688535.0,286047016.4,P
1597688535.9,286047016.4,P
1597688555.8,286047015.7,P
1597688575.6,286047016.6,Y
1597688595.4,286047000.2,P
1597688615.3,286047000.1,N
1597688635.1,286047001.6,N
1597688655.8,286047003.9,N
1597688675.7,286047004.1,N
1597688695.5,286047001.3,N
1597688715.4,286047004.3,N
1597688735.2,286047003.7,N
1597688755.0,286047004.1,N
1597688755.9,286047004.1,N
1597688775.8,286047004.1,N
1597688795.6,286047003.5,N
1597688815.4,286047005.9,N
1597688835.3,286047005.4,N
1597688855.1,286047007.5,N
1597688875.9,286047004.6,N
1597688895.7,286047006.7,N
1597688915.5,286047006.5,N
1597688935.4,286047006.3,N
1597688955.2,286047008.5,N
1597688975.0,286047009.0,N
1597688975.9,286047009.0,N
1597688995.8,286047008.5,N
1597689015.6,286047010.4,Y
1597689035.5,286047003.6,P
1597689055.3,286047003.3,P
1597689075.1,286047003.4,P
1597689095.9,286047003.3,Y
1597689115.7,286047002.8,P
1597689135.5,286047002.3,P
1597689155.4,286046999.9,N
1597689175.2,286046999.9,N
1597689195.1,286047000.3,N
1597689196.0,286047000.3,N
1597689215.8,286047002.7,N
1597689235.6,286047002.2,N
1597689255.5,286047002.1,N
1597689275.3,286047001.8,N
1597689295.1,286047001.4,N
1597689315.9,286047001.7,N
1597689335.7,286047001.5,N
1597689355.6,286047003.6,Y
1597689375.4,286047002.0,P
1597689395.2,286047002.2,P
1597689415.1,286047001.6,P
1597689416.0,286047001.6,Y
1597689435.8,286047002.3,P
1597689455.6,286047000.2,N
1597689475.5,286046999.9,N
1597689495.3,286047001.9,N
1597689515.2,286047001.4,N
1597689535.9,286047002.3,N
1597689555.7,286047004.4,Y
1597689575.6,286047002.4,P
1597689595.4,286047004.3,P
1597689615.2,286047003.3,N
1597689635.1,286047001.6,N
1597689636.0,286047001.6,N
1597689655.8,286047001.3,N
1597689675.7,286047003.7,Y
1597689695.5,286047002.2,P
1597689715.3,286047001.6,P
1597689735.2,286047001.7,P
1597689755.0,286047004.0,Y
1597689755.9,286047004.0,P
1597689775.8,286047001.7,N
1597689795.6,286047001.7,N
1597689815.4,286047002.2,N
1597689835.3,286047001.6,N
1597689855.1,286047003.7,Y
1597689875.9,286046999.9,P
1597689895.7,286047000.1,N
1597689915.5,286047000.2,N
1597689935.4,286047000.6,N
1597689955.2,286047000.3,N
1597689975.0,286047002.0,N
1597689975.9,286047002.0,N
1597689995.8,286047004.4,Y
1597690015.6,286047001.9,P
1597690035.5,286047004.1,P
1597690055.3,286047003.9,N
1597690075.1,286047006.0,Y
1597690095.9,286047001.7,P
1597690115.7,286047002.2,P
1597690135.6,286047001.3,P
1597690155.4,286047004.0,Y
1597690175.2,286047002.3,P
1597690195.1,286047002.0,P
1597690196.0,286047002.0,P
1597690215.8,286047001.8,Y
1597690235.7,286047001.0,P
1597690255.5,286047000.5,N
1597690275.3,286046999.7,N
1597690295.2,286047002.8,Y
1597690315.0,286046999.8,P
1597690315.9,286046999.8,N
1597690335.8,286046999.7,N
1597690355.6,286046999.9,N
1597690375.4,286047004.4,Y
1597690395.3,286047003.9,P
1597690415.1,286047003.0,N
1597690435.9,286047004.2,N
1597690455.7,286047004.1,N
1597690475.5,286047003.0,N
1597690495.4,286047004.0,N
1597690515.2,286047004.0,N
1597690535.1,286047005.7,Y
1597690536.0,286047005.7,P
1597690555.8,286047002.1,N
1597690575.6,286047002.1,N
1597690595.5,286047001.6,N
1597690615.3,286047002.0,N
1597690635.1,286047002.2,N
1597690655.9,286047002.3,N
1597690675.7,286047004.1,Y
1597690695.6,286047000.0,P
1597690715.4,286046999.9,N
1597690735.2,286047000.0,N
1597690755.1,286047002.3,N
1597690756.0,286047002.3,N
1597690775.8,286047002.5,N
1597690795.7,286047001.6,N
